Regional Weather Roundup
Issued by NWS Jackson, KY

Home | Current Version | Previous Version | Graphics & Text | Print | Product List | Glossary On
Versions: 1 2 3 4 5 6 7 8 9 10 11 12 13 14 15 16 17 18 19 20 21 22 23 24 25 26 27 28 29 30 31 32 33 34 35 36 37 38 39 40 41 42 43 44 45 46 47 48 49 50
000
ASUS43 KJKL 021310
RWRJKL

EAST KENTUCKY HOURLY WEATHER ROUNDUP
NATIONAL WEATHER SERVICE JACKSON KY
900 AM EDT SUN AUG 02 2015

NOTE: "FAIR" INDICATES FEW OR NO CLOUDS BELOW 12,000 FEET WITH
NO SIGNIFICANT WEATHER AND/OR OBSTRUCTIONS TO VISIBILITY.

* THESE REPORTS ARE NOT UNDER NWS QUALITY CONTROL AND MAY NOT
  REPORT WEATHER SUCH AS PRECIPITATION AND FOG.

KYZ079-080-083-085-087-088-110-112-115-119-120-021400
...EASTERN KENTUCKY...

CITY           SKY/WX    TMP DP  RH WIND       PRES   REMARKS
JACKSON        PTSUNNY   66  61  84 CALM      30.04S
LONDON         MOSUNNY   67  60  78 CALM      30.04R
SOMERSET*      MOSUNNY   63  63 100 CALM      30.05R
MONTICELLO*    MOSUNNY   68  64  86 CALM      30.06R
WILLIAMSBURG*  CLOUDY    63  63 100 CALM      30.04S
MIDDLESBORO*   FOG       60  60 100 CALM      30.06S VSB 3/4
HAZARD APT*    SUNNY     63  63 100 CALM      30.05R
BLACK MTN*       N/A     70  57  64 SE1         N/A
PIKEVILLE APT* FOG       63  63 100 S3        30.06R VSB 1/4
BIG SANDY*     CLOUDY    67  65  93 W3        30.04R
MOREHEAD APT*  PTSUNNY   66  64  94 S3        30.04S
$$

KYZ035-036-041-042-044-050-067-078-099-021400
...CENTRAL KENTUCKY...

CITY           SKY/WX    TMP DP  RH WIND       PRES   REMARKS
MT STERLING*   MOSUNNY   72  63  73 CALM      30.04R
FLEMING/MASON* SUNNY     68  63  83 S3        30.02S
DANVILLE*      MOSUNNY   68  61  77 SW5       30.05R
RICHMOND*      MOSUNNY   66  61  82 CALM      30.03R
LEXINGTON      MOSUNNY   70  63  78 S3        30.02R
FRANKFORT      MOSUNNY   67  63  87 S3        30.01R
$$

KYZ091>093-OHZ055-061-077-WVZ005-015-034-035-042-021400
...SOUTHERN OHIO/WEST VIRGINIA...

CITY           SKY/WX    TMP DP  RH WIND       PRES   REMARKS
COLUMBUS       MOSUNNY   71  60  68 SW3       29.98R
DAYTON         MOSUNNY   73  62  68 SW8       30.00R
WILMINGTON     SUNNY     73  61  65 SW5       30.00R
HUNTINGTON     PTSUNNY   66  64  93 CALM      30.01S
CHARLESTON     MOSUNNY   67  62  84 CALM      30.03R
PINEVILLE*     CLOUDY    61  61 100 MISG      30.12R
BECKLEY        MOSUNNY   66  58  75 SW3       30.10R
BLUEFIELD      MOSUNNY   68  57  68 CALM      30.11R
$$

VAZ002-007-008-TNZ017-027-036-066-071-021400
...SOUTHWEST VIRGINIA/EAST TENNESSEE...

CITY           SKY/WX    TMP DP  RH WIND       PRES   REMARKS
WISE*          MOSUNNY   70  57  64 CALM      30.11R
ABINGDON*      SUNNY     70  62  74 E3        30.08S
BRISTOL        MOSUNNY   68  63  84 E3        30.06R
KNOXVILLE      MOSUNNY   71  63  75 NE7       30.00S
OAK RIDGE      SUNNY     71  63  75 CALM      30.03R
CROSSVILLE     SUNNY     71  61  70 NE3       30.06R
NASHVILLE      SUNNY     73  65  75 VRB3      30.01R
$$

...KEY TO REMARKS...
VSB - VISIBILITY IN MILES
WCI - WIND CHILL INDEX
HX  - HEAT INDEX

$$



USA.gov is the U.S. government's official web portal to all federal, state and local government web resources and services.